Time,TemperatureF,DewpointF,PressureIn,WindDirection,WindDirectionDegrees,WindSpeedMPH,WindSpeedGustMPH,Humidity,HourlyPrecipIn,Conditions,Clouds,dailyrainin,SolarRadiationWatts/m^2,SoftwareType,DateUTC
2013-03-10 00:01:00,28.0,27.0,-100.00,NE,49,1.0,6.0,94,0.00,,,0.00,0.000000,,2013-03-10 08:01:00,
2013-03-10 00:32:00,27.0,26.0,-100.00,ENE,65,1.0,5.0,97,0.00,,,0.00,0.000000,,2013-03-10 08:32:00,
2013-03-10 00:42:00,27.0,26.0,-100.00,ENE,65,1.0,5.0,97,0.00,,,0.00,0.000000,,2013-03-10 08:42:00,
2013-03-10 00:51:00,27.0,26.0,-100.00,ENE,65,1.0,5.0,97,0.00,,,0.00,0.000000,,2013-03-10 08:51:00,
2013-03-10 01:01:00,27.0,26.0,-100.00,ENE,65,1.0,5.0,97,0.00,,,0.00,0.000000,,2013-03-10 09:01:00,
2013-03-10 01:32:00,27.0,27.0,-100.00,ENE,69,1.0,5.0,99,0.00,,,0.00,0.000000,,2013-03-10 09:32:00,
2013-03-10 01:42:00,27.0,27.0,-100.00,ENE,69,1.0,5.0,99,0.00,,,0.00,0.000000,,2013-03-10 09:42:00,
2013-03-10 01:51:00,27.0,27.0,-100.00,ENE,69,1.0,5.0,99,0.00,,,0.00,0.000000,,2013-03-10 09:51:00,
2013-03-10 03:01:00,27.0,27.0,-100.00,ENE,69,1.0,5.0,99,0.00,,,0.00,0.000000,,2013-03-10 10:01:00,
2013-03-10 03:32:00,26.0,26.0,-100.00,NW,312,0.0,4.0,99,0.00,,,0.00,0.000000,,2013-03-10 10:32:00,
2013-03-10 03:42:00,26.0,26.0,-100.00,NW,312,0.0,4.0,99,0.00,,,0.00,0.000000,,2013-03-10 10:42:00,
2013-03-10 03:52:00,26.0,26.0,-100.00,NW,312,0.0,4.0,99,0.00,,,0.00,0.000000,,2013-03-10 10:52:00,
2013-03-10 04:01:00,26.0,26.0,-100.00,NW,312,0.0,4.0,99,0.00,,,0.00,0.000000,,2013-03-10 11:01:00,
2013-03-10 06:32:00,28.0,27.0,-100.00,NNW,335,1.0,5.0,97,-99.99,,,0.00,0.000000,,2013-03-10 13:32:00,
2013-03-10 06:42:00,28.0,27.0,-100.00,NNW,335,1.0,5.0,97,-99.99,,,0.00,0.000000,,2013-03-10 13:42:00,
2013-03-10 06:52:00,28.0,27.0,-100.00,NNW,335,1.0,5.0,97,-99.99,,,0.00,0.000000,,2013-03-10 13:52:00,
2013-03-10 07:01:00,28.0,27.0,-100.00,NNW,335,1.0,5.0,97,-99.99,,,0.00,0.000000,,2013-03-10 14:01:00,
2013-03-10 07:32:00,29.0,28.0,-100.00,East,98,1.0,4.0,95,0.00,,,0.00,0.000000,,2013-03-10 14:32:00,
2013-03-10 07:42:00,29.0,28.0,-100.00,East,98,1.0,4.0,95,0.00,,,0.00,0.000000,,2013-03-10 14:42:00,
2013-03-10 07:52:00,29.0,28.0,-100.00,East,98,1.0,4.0,95,0.00,,,0.00,0.000000,,2013-03-10 14:52:00,
2013-03-10 08:01:00,29.0,28.0,-100.00,East,98,1.0,4.0,95,0.00,,,0.00,0.000000,,2013-03-10 15:01:00,
2013-03-10 08:32:00,30.0,28.0,-100.00,NNE,33,1.0,6.0,92,-99.99,,,0.00,5.000000,,2013-03-10 15:32:00,
2013-03-10 08:42:00,30.0,28.0,-100.00,NNE,33,1.0,6.0,92,-99.99,,,0.00,5.000000,,2013-03-10 15:42:00,
2013-03-10 08:52:00,30.0,28.0,-100.00,NNE,33,1.0,6.0,92,-99.99,,,0.00,5.000000,,2013-03-10 15:52:00,
2013-03-10 09:01:00,30.0,28.0,-100.00,NNE,33,1.0,6.0,92,-99.99,,,0.00,5.000000,,2013-03-10 16:01:00,
2013-03-10 09:32:00,32.0,27.0,-100.00,ESE,116,1.0,5.0,83,0.00,,,0.00,55.000000,,2013-03-10 16:32:00,
2013-03-10 09:42:00,32.0,27.0,-100.00,ESE,116,1.0,5.0,83,0.00,,,0.00,55.000000,,2013-03-10 16:42:00,
2013-03-10 09:52:00,32.0,27.0,-100.00,ESE,116,1.0,5.0,83,0.00,,,0.00,55.000000,,2013-03-10 16:52:00,
2013-03-10 10:01:00,32.0,27.0,-100.00,ESE,116,1.0,5.0,83,0.00,,,0.00,55.000000,,2013-03-10 17:01:00,
2013-03-10 12:32:00,45.0,32.0,-100.00,WSW,238,1.0,4.0,60,-99.99,,,0.00,239.000000,,2013-03-10 19:32:00,
2013-03-10 12:42:00,45.0,32.0,-100.00,WSW,238,1.0,4.0,60,-99.99,,,0.00,239.000000,,2013-03-10 19:42:00,
2013-03-10 12:53:00,45.0,32.0,-100.00,WSW,238,1.0,4.0,60,-99.99,,,0.00,239.000000,,2013-03-10 19:53:00,
2013-03-10 13:01:00,45.0,32.0,-100.00,WSW,238,1.0,4.0,60,-99.99,,,0.00,239.000000,,2013-03-10 20:01:00,
2013-03-10 13:32:00,43.0,34.0,-100.00,SSE,154,2.0,6.0,70,0.00,,,0.00,303.000000,,2013-03-10 20:32:00,
2013-03-10 13:43:00,43.0,34.0,-100.00,SSE,154,2.0,6.0,70,0.00,,,0.00,303.000000,,2013-03-10 20:43:00,
2013-03-10 13:53:00,43.0,34.0,-100.00,SSE,154,2.0,6.0,70,0.00,,,0.00,303.000000,,2013-03-10 20:53:00,
2013-03-10 14:02:00,43.0,34.0,-100.00,SSE,154,2.0,6.0,70,0.00,,,0.00,303.000000,,2013-03-10 21:02:00,
2013-03-10 14:33:00,45.0,37.0,-100.00,NNE,29,2.0,7.0,74,0.00,,,0.00,408.000000,,2013-03-10 21:33:00,
2013-03-10 14:42:00,45.0,37.0,-100.00,NNE,29,2.0,7.0,74,0.00,,,0.00,408.000000,,2013-03-10 21:42:00,
2013-03-10 14:52:00,45.0,37.0,-100.00,NNE,29,2.0,7.0,74,0.00,,,0.00,408.000000,,2013-03-10 21:52:00,
2013-03-10 15:02:00,45.0,37.0,-100.00,NNE,29,2.0,7.0,74,0.00,,,0.00,408.000000,,2013-03-10 22:02:00,
2013-03-10 15:32:00,42.0,36.0,-100.00,WSW,249,2.0,10.0,80,0.00,,,0.00,292.000000,,2013-03-10 22:32:00,
2013-03-10 15:43:00,42.0,36.0,-100.00,WSW,249,2.0,10.0,80,0.00,,,0.00,292.000000,,2013-03-10 22:43:00,
2013-03-10 15:53:00,42.0,36.0,-100.00,WSW,249,2.0,10.0,80,0.00,,,0.00,292.000000,,2013-03-10 22:53:00,
2013-03-10 16:02:00,42.0,36.0,-100.00,WSW,249,2.0,10.0,80,0.00,,,0.00,292.000000,,2013-03-10 23:02:00,
2013-03-10 16:33:00,40.0,38.0,-100.00,WSW,250,2.0,9.0,91,0.00,,,0.00,200.000000,,2013-03-10 23:33:00,
2013-03-10 16:43:00,40.0,38.0,-100.00,WSW,250,2.0,9.0,91,0.00,,,0.00,200.000000,,2013-03-10 23:43:00,
2013-03-10 16:52:00,40.0,38.0,-100.00,WSW,250,2.0,9.0,91,0.00,,,0.00,200.000000,,2013-03-10 23:52:00,
2013-03-10 17:02:00,40.0,38.0,-100.00,WSW,250,2.0,9.0,91,0.00,,,0.00,200.000000,,2013-03-11 00:02:00,
2013-03-10 17:33:00,38.0,37.0,-100.00,WSW,248,2.0,10.0,98,0.01,,,0.01,111.000000,,2013-03-11 00:33:00,
2013-03-10 17:43:00,38.0,37.0,-100.00,WSW,248,2.0,10.0,98,0.01,,,0.01,111.000000,,2013-03-11 00:43:00,
2013-03-10 17:53:00,38.0,37.0,-100.00,WSW,248,2.0,10.0,98,0.01,,,0.01,111.000000,,2013-03-11 00:53:00,
2013-03-10 18:02:00,38.0,37.0,-100.00,WSW,248,2.0,10.0,98,0.01,,,0.01,111.000000,,2013-03-11 01:02:00,
2013-03-10 18:33:00,35.0,35.0,-100.00,West,260,1.0,6.0,100,0.00,,,0.01,29.000000,,2013-03-11 01:33:00,
2013-03-10 18:43:00,35.0,35.0,-100.00,West,260,1.0,6.0,100,0.00,,,0.01,29.000000,,2013-03-11 01:43:00,
2013-03-10 18:53:00,35.0,35.0,-100.00,West,260,1.0,6.0,100,0.00,,,0.01,29.000000,,2013-03-11 01:53:00,
2013-03-10 19:02:00,35.0,35.0,-100.00,West,260,1.0,6.0,100,0.00,,,0.01,29.000000,,2013-03-11 02:02:00,
2013-03-10 19:32:00,35.0,35.0,-100.00,WNW,290,1.0,4.0,100,0.00,,,0.01,5.000000,,2013-03-11 02:32:00,
2013-03-10 19:42:00,35.0,35.0,-100.00,WNW,290,1.0,4.0,100,0.00,,,0.01,5.000000,,2013-03-11 02:42:00,
2013-03-10 19:52:00,35.0,35.0,-100.00,WNW,290,1.0,4.0,100,0.00,,,0.01,5.000000,,2013-03-11 02:52:00,
2013-03-10 20:02:00,35.0,35.0,-100.00,WNW,290,1.0,4.0,100,0.00,,,0.01,5.000000,,2013-03-11 03:02:00,
2013-03-10 20:32:00,36.0,36.0,-100.00,NNW,335,1.0,5.0,100,0.00,,,0.01,0.000000,,2013-03-11 03:32:00,
2013-03-10 20:43:00,36.0,36.0,-100.00,NNW,335,1.0,5.0,100,0.00,,,0.01,0.000000,,2013-03-11 03:43:00,
2013-03-10 20:52:00,36.0,36.0,-100.00,NNW,335,1.0,5.0,100,0.00,,,0.01,0.000000,,2013-03-11 03:52:00,
2013-03-10 21:02:00,36.0,36.0,-100.00,NNW,335,1.0,5.0,100,0.00,,,0.01,0.000000,,2013-03-11 04:02:00,
2013-03-10 21:33:00,36.0,36.0,-100.00,North,352,2.0,6.0,100,0.00,,,0.01,0.000000,,2013-03-11 04:33:00,
2013-03-10 21:43:00,36.0,36.0,-100.00,North,352,2.0,6.0,100,0.00,,,0.01,0.000000,,2013-03-11 04:43:00,
2013-03-10 21:53:00,36.0,36.0,-100.00,North,352,2.0,6.0,100,0.00,,,0.01,0.000000,,2013-03-11 04:53:00,
2013-03-10 22:02:00,36.0,36.0,-100.00,North,352,2.0,6.0,100,0.00,,,0.01,0.000000,,2013-03-11 05:02:00,
2013-03-10 22:32:00,34.0,34.0,-100.00,NNE,14,1.0,7.0,100,0.00,,,0.01,0.000000,,2013-03-11 05:32:00,
2013-03-10 22:43:00,34.0,34.0,-100.00,NNE,14,1.0,7.0,100,0.00,,,0.01,0.000000,,2013-03-11 05:43:00,
2013-03-10 22:52:00,34.0,34.0,-100.00,NNE,14,1.0,7.0,100,0.00,,,0.01,0.000000,,2013-03-11 05:52:00,
2013-03-10 23:02:00,34.0,34.0,-100.00,NNE,14,1.0,7.0,100,0.00,,,0.01,0.000000,,2013-03-11 06:02:00,
2013-03-10 23:33:00,34.0,34.0,-100.00,West,263,1.0,6.0,100,0.01,,,0.02,0.000000,,2013-03-11 06:33:00,
2013-03-10 23:42:00,34.0,34.0,-100.00,West,263,1.0,6.0,100,0.01,,,0.02,0.000000,,2013-03-11 06:42:00,
2013-03-10 23:53:00,34.0,34.0,-100.00,West,263,1.0,6.0,100,0.01,,,0.02,0.000000,,2013-03-11 06:53:00,